User: anonymous   Login
Location: Young's Pond
(41.2695°N, 72.7766°W)
Time: 09:23:42
(UTC-04:00)
Language:

Spot 4 - Orbit

View from above orbital plane
View from above orbital plane
View from above satellite
View from above satellite

Ground track
Ground track

The orbit data is extracted from the following two-line orbital elements,

1 25260U 98017A   16183.24351685  .00000071  00000-0  28018-4 0  9994
2 25260  98.3794 260.2738 0011726 271.9746  88.0106 14.53414996950876
Epoch (UTC): 01 July 2016 05:50:39
Eccentricity: 0.0011726
inclination: 98.3794°
perigee height: 706 km
apogee height: 723 km
right ascension of ascending node: 260.2738°
argument of perigee: 271.9746°
revolutions per day: 14.53414996
mean anomaly at epoch: 88.0106°
orbit number at epoch: 95087

The dashed part of the orbit path shows where the satellite is in the earth's shadow,  

DLR